Hourly Data Report for September 26, 2017

All times are specified in Local Standard Time (LST). Add 1 hour to adjust for Daylight Saving Time where and when it is observed.

CAPE DORSET A
NUNAVUT

64°13'49.000" N
76°31'30.000" W
48.20 m
2400637
71366
YTE

Download Data

Hourly Data (September 2017)
Hourly Data Report for September 26, 2017
Temp Definition
°C
Dew Point Temp Definition
°C
Rel Hum Definition
%
Wind Dir Definition
10's deg

Wind Spd Definition
km/h
Visibility Definition
km
Stn Press Definition
kPa
Hmdx Definition


Wind Chill Definition


Weather Definition


TIME
00:00 Legend Double Dagger -0.8 -3.6 81 27 21 16.1 100.99   -6 LegendNANA
01:00 Legend Double Dagger -1.1 -4.2 80 31 21 16.1 101.00   -7 LegendNANA
02:00 Legend Double Dagger -1.1 -3.4 84 29 15 16.1 101.01   -6 LegendNANA
03:00 Legend Double Dagger -0.8 -3.6 81 27 17 16.1 101.01   -6 LegendNANA
04:00 Legend Double Dagger -0.7 -3.3 83 29 24 16.1 101.03   -7 LegendNANA
05:00 Legend Double Dagger -0.8 -4.3 77 31 22 16.1 101.08   -7 LegendNANA
06:00 Legend Double Dagger -0.5 -3.6 80 29 15 16.1 101.07   -5 LegendNANA
07:00 Legend Double Dagger -0.5 -3.5 80 29 24 16.1 101.08   -6 LegendNANA
08:00 Legend Double Dagger -0.6 -3.4 82 30 21 16.1 101.09   -6 LegendNANA
09:00 Legend Double Dagger -0.6 -3.9 79 30 24 16.1 101.08   -7 LegendNANA
10:00 Legend Double Dagger -1.0 -2.6 89 28 21 16.1 101.09   -7 Snow
11:00 Legend Double Dagger -0.9 -4.1 79 30 28 16.1 101.11   -7 LegendNANA
12:00 Legend Double Dagger -0.5 -4.3 75 29 17 16.1 101.10   -5 LegendNANA
13:00 Legend Double Dagger -0.2 -4.3 74 29 28 16.1 101.10   -7 LegendNANA
14:00 Legend Double Dagger -0.2 -3.9 76 29 28 16.1 101.09   -7 LegendNANA
15:00 Legend Double Dagger -0.5 -3.7 79 30 24 16.1 101.11   -6 LegendNANA
16:00 Legend Double Dagger -0.6 -4.3 76 31 28 16.1 101.13   -7 LegendNANA
17:00 Legend Double Dagger -1.0 -4.2 79 30 24 16.1 101.13   -7 LegendNANA
18:00 Legend Double Dagger -1.4 -3.9 83 31 32 16.1 101.15   -9 LegendNANA
19:00 Legend Double Dagger -1.8 -4.4 82 30 22 16.1 101.18   -8 LegendNANA
20:00 Legend Double Dagger -1.9 -4.6 82 30 24 16.1 101.15   -8 LegendNANA
21:00 Legend Double Dagger -1.8 -4.2 84 30 18 16.1 101.11   -7 LegendNANA
22:00 Legend Double Dagger -1.5 -4.0 83 28 15 16.1 101.11   -6 LegendNANA
23:00 Legend Double Dagger -1.5 -4.1 83 32 18 16.1 101.12   -7 LegendNANA

Notes on Data Quality.

Legend

  • E = Estimated
  • M = Missing
  • NA = Not Available
  • ‡ = Partner data that is not subject to review by the National Climate Archives
Date modified: